Stations météo

réclame
Mon MeteoGroup
Javea, Espagne (8370): Température de l'air & dewpoint: 18.10.2018 07:00:00 - 24.10.2018 07:00:00 (CEST)Javea, Espagne (8370): Vitesse du vent & gusts: 18.10.2018 07:00:00 - 24.10.2018 07:00:00 (CEST)Javea, Espagne (8370): Direction du vent: 18.10.2018 07:00:00 - 24.10.2018 07:00:00 (CEST)Javea, Espagne (8370): reduced air pressure: 18.10.2018 07:00:00 - 24.10.2018 07:00:00 (CEST)Javea, Espagne (8370): visibility: 18.10.2018 07:00:00 - 24.10.2018 07:00:00 (CEST)Javea, Espagne (8370): Ensoleillement: 18.10.2018 07:00:00 - 24.10.2018 07:00:00 (CEST)Javea, Espagne (8370): Quantités de précipitations: 18.10.2018 07:00:00 - 24.10.2018 07:00:00 (CEST)
Date & Time tt [°C] td [°C] ff [km/h] ff [knt] fx [km/h] fx [knt] dd ppp [hPa] vv [km] sd [min] rr [mm]
24.10.2018 07:00:00 - - - - - - - - - - -
24.10.2018 06:00:00 14,3 12,8 5 3 11 6 WSW 1024,6 4,7 0 0,0
24.10.2018 05:00:00 14,5 12,8 6 3 14 8 W 1024,6 6 0 0,0
24.10.2018 04:00:00 13,8 12,6 9 5 13 7 WSW 1025,1 7 0 0,0
24.10.2018 03:00:00 14,3 13,1 8 4 12 7 WSW 1025,6 7 0 0,0
24.10.2018 02:00:00 14,0 12,7 7 4 12 7 WSW 1025,9 7 0 -
24.10.2018 01:00:00 14,8 13,2 8 4 12 7 WSW 1026,1 9 0 0,0
24.10.2018 00:00:00 14,4 12,7 7 4 13 7 WSW 1026,4 9 0 0,0
23.10.2018 23:00:00 15,0 13,2 8 4 12 6 WSW 1026,3 8 0 0,0
23.10.2018 22:00:00 15,8 13,7 6 4 8 5 W 1026,0 9 0 0,0
23.10.2018 21:00:00 16,8 13,8 5 3 8 4 W 1026,0 9 0 0,0
23.10.2018 20:00:00 17,8 14,3 4 2 6 3 W 1025,8 9 0 -
23.10.2018 19:00:00 20,8 15,2 2 1 9 5 S 1025,6 11 17 0,0
23.10.2018 18:00:00 21,9 14,8 4 2 9 5 S 1025,5 13 6 0,0
23.10.2018 17:00:00 22,7 14,0 3 2 10 5 SE 1025,6 15 8 0,0
23.10.2018 16:00:00 22,3 12,8 7 4 11 6 E 1025,7 13 11 0,0
23.10.2018 15:00:00 22,9 14,7 5 3 13 7 E 1025,9 15 19 0,0
23.10.2018 14:00:00 22,5 16,3 6 3 22 12 NNE 1026,4 12 6 -
23.10.2018 13:00:00 22,6 17,1 11 6 25 13 NNW 1026,8 10 40 0,0
23.10.2018 12:00:00 20,7 16,9 15 8 25 13 NNW 1026,8 8 15 0,2
23.10.2018 11:00:00 20,6 17,1 10 5 17 9 NW 1026,8 8 39 0,0
23.10.2018 10:00:00 19,4 17,5 7 4 16 9 WNW 1026,3 8 20 0,0
23.10.2018 09:00:00 18,4 17,1 4 2 16 9 WSW 1025,8 4,6 0 0,0
23.10.2018 08:00:00 18,3 17,0 8 5 14 8 SW 1025,1 4,4 0 -
23.10.2018 07:00:00 18,2 16,9 5 3 14 8 W 1024,7 5 0 5,0
23.10.2018 06:00:00 18,1 16,6 5 3 14 8 S 1024,5 4,1 0 1,0
23.10.2018 05:00:00 18,0 15,8 8 4 12 6 NW 1024,4 11 0 0,0
23.10.2018 04:00:00 16,7 14,9 4 2 10 5 W 1024,5 6 0 0,0
23.10.2018 03:00:00 18,8 14,9 7 4 14 7 NNE 1024,7 10 0 0,0
23.10.2018 02:00:00 20,0 15,4 8 5 18 10 NNE 1024,8 10 0 -
23.10.2018 01:00:00 20,1 16,1 9 5 16 9 N 1024,8 10 0 0,0
23.10.2018 00:00:00 20,0 16,0 9 5 14 8 N 1024,6 9 0 0,0
22.10.2018 23:00:00 20,0 16,5 9 5 15 8 NNE 1024,3 10 0 0,0
22.10.2018 22:00:00 19,8 16,0 5 3 16 9 N 1023,5 9 0 0,0
22.10.2018 21:00:00 20,9 16,0 10 5 16 9 NNE 1023,0 9 0 0,0
22.10.2018 20:00:00 20,7 15,7 8 5 19 10 NNE 1022,1 10 0 -
22.10.2018 19:00:00 21,3 16,0 13 7 22 12 NNE 1021,8 10 9 0,0
22.10.2018 18:00:00 23,8 16,8 12 6 24 13 N 1021,5 12 45 0,0
22.10.2018 17:00:00 22,7 16,5 14 8 29 15 N 1021,3 13 53 0,0
22.10.2018 16:00:00 24,0 16,0 17 9 29 16 NNW 1020,7 13 60 0,0
22.10.2018 15:00:00 24,5 16,5 19 11 34 18 NNW 1020,8 14 60 0,0
22.10.2018 14:00:00 24,8 16,0 16 9 29 15 NNW 1021,0 14 60 -
22.10.2018 13:00:00 25,0 16,7 10 5 21 11 N 1021,2 19 60 0,0
22.10.2018 12:00:00 24,3 16,6 9 5 18 10 NNE 1021,2 13 60 0,0
22.10.2018 11:00:00 22,3 16,1 3 2 12 7 WSW 1020,7 13 60 0,0
22.10.2018 10:00:00 18,0 15,8 6 4 13 7 WSW 1020,5 12 53 0,0
22.10.2018 09:00:00 14,4 13,3 8 4 13 7 WSW 1019,7 4,4 13 0,0
22.10.2018 08:00:00 14,2 13,1 8 4 13 7 WSW 1019,0 8 0 -
22.10.2018 07:00:00 14,7 13,6 6 3 11 6 WSW 1018,9 9 0 0,0
22.10.2018 06:00:00 14,6 13,7 9 5 11 6 WSW 1018,6 8 0 0,0
22.10.2018 05:00:00 15,4 14,4 7 4 14 7 WSW 1018,7 11 0 0,0
22.10.2018 04:00:00 15,7 14,7 8 4 10 5 WSW 1019,3 5 0 0,0
22.10.2018 03:00:00 15,8 14,8 4 2 10 6 SSW 1019,5 5 0 0,0
22.10.2018 02:00:00 16,6 15,6 6 4 9 5 W 1019,6 4,4 0 -
22.10.2018 01:00:00 17,6 16,5 6 3 9 5 W 1020,0 3,8 0 0,0
22.10.2018 00:00:00 17,8 16,3 5 3 8 4 WSW 1020,2 3,8 0 0,0
21.10.2018 23:00:00 18,8 17,0 4 2 9 5 W 1020,1 5 0 0,0
21.10.2018 22:00:00 20,3 18,1 6 4 10 5 NNW 1020,2 10 0 0,0
21.10.2018 21:00:00 20,7 17,9 6 3 15 8 N 1019,8 11 0 0,0
21.10.2018 20:00:00 21,2 18,0 10 5 17 9 NNE 1019,6 11 0 -
21.10.2018 19:00:00 21,7 18,3 13 7 23 13 NNE 1019,4 12 2 0,0
21.10.2018 18:00:00 22,6 17,9 12 6 23 13 NE 1019,5 12 25 0,0
21.10.2018 17:00:00 24,6 17,3 10 5 18 10 NNE 1019,9 13 47 0,0
21.10.2018 16:00:00 23,6 16,9 9 5 20 11 NNE 1020,3 13 44 0,0
21.10.2018 15:00:00 24,7 16,9 11 6 21 11 NE 1020,3 15 60 0,0
21.10.2018 14:00:00 24,8 17,3 12 6 22 12 NE 1020,8 12 60 -
21.10.2018 13:00:00 24,3 17,8 13 7 23 12 NE 1021,7 12 60 0,0
21.10.2018 12:00:00 24,4 18,1 13 7 22 12 NE 1021,9 9 60 0,0
21.10.2018 11:00:00 22,8 17,9 13 7 22 12 NE 1022,1 11 24 0,0
21.10.2018 10:00:00 23,0 18,8 11 6 19 10 NNE 1022,0 10 21 0,0
21.10.2018 09:00:00 21,1 18,5 9 5 17 9 NE 1021,7 10 0 0,0
21.10.2018 08:00:00 20,2 17,9 7 4 14 7 NNE 1021,2 10 0 -
21.10.2018 07:00:00 20,2 17,4 8 4 14 8 NNE 1021,1 13 0 0,0
21.10.2018 06:00:00 21,3 17,9 12 7 19 10 NE 1021,0 13 0 0,0
21.10.2018 05:00:00 21,1 18,3 10 5 17 9 NE 1020,9 13 0 0,0
21.10.2018 04:00:00 21,2 18,2 11 6 20 11 NNE 1021,1 12 0 0,0
21.10.2018 03:00:00 21,6 18,0 10 5 27 14 NE 1021,4 12 0 0,0
21.10.2018 02:00:00 21,8 18,6 13 7 23 13 NNE 1021,5 12 0 -
21.10.2018 01:00:00 21,7 18,7 12 7 26 14 NE 1021,5 11 0 0,0
21.10.2018 00:00:00 21,7 18,1 15 8 23 13 NNE 1021,8 11 0 0,0
20.10.2018 23:00:00 21,7 18,1 16 8 28 15 NNE 1021,7 11 0 0,0
20.10.2018 22:00:00 21,6 17,8 13 7 26 14 NNE 1021,2 11 0 0,0
20.10.2018 21:00:00 21,5 17,5 15 8 27 15 NNE 1020,9 12 0 0,0
20.10.2018 20:00:00 21,7 17,5 16 8 31 17 NNE 1020,5 11 0 -
20.10.2018 19:00:00 22,1 18,3 15 8 37 20 NNE 1020,2 10 0 0,0
20.10.2018 18:00:00 22,2 18,0 19 11 34 19 NNE 1020,0 11 0 0,0
20.10.2018 17:00:00 22,6 17,9 14 8 27 15 NE 1019,9 9 25 0,0
20.10.2018 16:00:00 23,3 17,5 18 10 28 15 NE 1020,0 12 53 0,0
20.10.2018 15:00:00 23,8 17,8 17 9 28 15 NE 1020,2 16 41 0,0
20.10.2018 14:00:00 25,1 18,3 12 7 26 14 N 1020,7 14 24 -
20.10.2018 13:00:00 24,6 17,9 13 7 22 12 N 1021,2 12 26 0,2
20.10.2018 12:00:00 21,8 17,4 12 6 20 11 NW 1021,1 11 4 0,0
20.10.2018 11:00:00 20,3 17,1 5 3 14 8 W 1020,4 11 4 0,0
20.10.2018 10:00:00 20,0 17,9 7 4 15 8 NNW 1019,4 12 42 0,0
20.10.2018 09:00:00 17,2 15,9 5 3 17 9 W 1018,8 13 0 0,0
20.10.2018 08:00:00 17,1 15,6 6 3 22 12 WSW 1018,6 16 0 -
20.10.2018 07:00:00 16,9 16,0 14 8 21 11 N 1017,4 13 0 2,0
20.10.2018 06:00:00 16,1 14,6 5 3 - - W 1019,2 7 - -
20.10.2018 05:00:00 15,5 13,6 7 4 13 7 SW 1019,2 17 0 0,0
20.10.2018 04:00:00 15,3 13,4 8 4 21 11 WSW 1018,9 18 0 0,0
20.10.2018 03:00:00 15,1 13,3 9 5 16 9 W 1018,1 20 0 0,0
20.10.2018 02:00:00 15,2 13,8 9 5 18 10 WSW 1017,6 17 0 -
20.10.2018 01:00:00 14,4 13,3 8 4 13 7 WSW 1017,8 15 0 0,0
20.10.2018 00:00:00 14,8 13,7 5 3 10 6 SW 1017,5 14 0 0,0
19.10.2018 23:00:00 15,0 13,8 5 3 9 5 WSW 1016,7 13 0 0,0
19.10.2018 22:00:00 15,4 13,5 0 0 6 3 N 1016,1 12 0 0,0
19.10.2018 21:00:00 16,7 14,1 4 2 9 5 NNW 1015,7 16 0 0,0
19.10.2018 20:00:00 - - - - - - - - - - -
19.10.2018 19:00:00 21,0 14,6 5 3 13 7 S 1014,2 20 54 0,0
19.10.2018 18:00:00 23,6 13,8 9 5 16 8 S 1013,5 20 60 0,0
19.10.2018 17:00:00 24,3 15,0 7 4 14 8 SSE 1013,1 19 60 0,0
19.10.2018 16:00:00 21,8 16,7 6 3 12 6 E 1013,1 20 50 0,0
19.10.2018 15:00:00 19,7 17,5 2 1 11 6 E 1012,9 20 0 0,8
19.10.2018 14:00:00 19,8 17,2 4 2 8 4 E 1013,7 19 0 -
19.10.2018 13:00:00 19,5 16,7 2 1 7 4 SSE 1013,5 16 0 2,6
19.10.2018 12:00:00 20,1 15,7 3 1 16 9 W 1013,3 20 0 0,0
19.10.2018 11:00:00 19,8 16,0 5 3 11 6 NE 1012,3 19 12 0,0
19.10.2018 10:00:00 18,5 16,8 7 4 13 7 WNW 1011,9 17 13 0,0
19.10.2018 09:00:00 16,9 15,4 4 2 12 6 SW 1011,2 20 0 0,0
19.10.2018 08:00:00 17,0 15,2 8 4 22 12 SW 1010,7 20 0 -
19.10.2018 07:00:00 17,1 15,6 10 6 28 15 W 1010,6 20 0 0,0
19.10.2018 06:00:00 17,5 15,7 13 7 31 17 W 1010,5 18 0 0,0
19.10.2018 05:00:00 17,6 14,5 8 5 26 14 W 1010,3 19 0 0,0
19.10.2018 04:00:00 17,5 14,6 5 3 18 10 W 1010,2 18 0 0,0
19.10.2018 03:00:00 18,4 14,5 9 5 29 16 WNW 1010,1 18 0 0,0
19.10.2018 02:00:00 18,3 14,4 18 10 29 15 NNW 1009,2 18 0 -
19.10.2018 01:00:00 18,4 13,7 14 7 29 16 NNW 1009,5 20 0 0,0
19.10.2018 00:00:00 18,7 14,1 7 4 29 16 W 1010,3 18 0 0,0
18.10.2018 23:00:00 18,6 14,0 11 6 31 17 WNW 1010,1 20 0 0,0
18.10.2018 22:00:00 18,5 15,2 13 7 29 16 NW 1009,8 18 0 0,0
18.10.2018 21:00:00 18,3 14,4 15 8 31 17 WNW 1008,6 19 0 0,0
18.10.2018 20:00:00 18,1 15,0 5 3 22 12 WSW 1008,8 16 0 -
18.10.2018 19:00:00 18,7 15,2 12 6 34 19 NW 1008,2 16 0 0,0
18.10.2018 18:00:00 19,8 15,6 15 8 31 17 NNW 1008,0 18 2 0,0
18.10.2018 17:00:00 20,2 15,6 16 9 33 18 NNW 1007,9 18 4 0,0
18.10.2018 16:00:00 20,5 15,9 18 10 34 18 NW 1007,9 20 27 0,0
18.10.2018 15:00:00 23,3 17,9 10 5 22 12 WNW 1008,3 19 53 0,0
18.10.2018 14:00:00 20,8 17,6 10 6 26 14 W 1009,2 20 23 -
18.10.2018 13:00:00 17,9 16,4 13 7 24 13 WNW 1009,9 18 0 1,0
18.10.2018 12:00:00 18,0 16,8 13 7 26 14 NW 1010,4 8 0 2,8
18.10.2018 11:00:00 17,7 16,4 9 5 31 17 NNW 1010,6 9 0 2,8
18.10.2018 10:00:00 17,4 16,0 9 5 22 12 W 1010,3 4,8 0 21,2
18.10.2018 09:00:00 17,6 16,1 14 7 26 14 WNW 1010,0 9 0 6,2
18.10.2018 08:00:00 17,5 15,9 12 7 29 16 NW 1010,3 8 0 -
18.10.2018 07:00:00 17,9 16,2 10 5 18 10 NW 1010,6 10 0 0,0

tt = Température de l'air
td = dewpoint
ff = Vitesse du vent
fx = gusts
dd = Direction du vent
ppp = reduced air pressure
vv = visibility
sd = Ensoleillement
rr = Quantités de précipitations

stations d'obs. à proximité